Location: Huntsville
(41.2590°N, 111.7678°W)
Time: 16:13:14
(UTC+00:00)

Courier 1B Rocket - Pass Details

Date: 18 June 2021
Orbit: 920 x 1202 km, 28.2° (Epoch: 24 July)

Event Time Altitude Azimuth Distance (km) Brightness Sun altitude
Rises 03:38:48 0° 235° (SW) 3,716 8.3 -6.3°
Reaches altitude 10° 03:42:06 10° 221° (SW) 2,720 7.4 -6.8°
Maximum altitude 03:47:01 23° 172° (S) 1,905 6.1 -7.5°
Drops below altitude 10° 03:51:47 10° 122° (ESE) 2,624 6.6 -8.2°
Enters shadow 03:51:59 - 121° (ESE) 2,676 6.6 -8.2°
Sets 03:54:54 0° 108° (ESE) 3,552 - -8.6°
